Voltar ao catálogo

STARLINK-34727

AtivoComunicaçõesVLEO
NORAD 65025·PAYLOAD·🇺🇸 United States

Lançado Jul 30, 2025 de Cape Canaveral Space Force Station

Loading…

Próximas Passagens (próximas 24 horas)

TLE

AtualizadoSource: CelesTrak SupGP

Época: Sep 15, 2026, 02:29 UTC

1 65025C 25161L   26258.10395833  .00049738  00000+0  14694-2 0  2582
2 65025  53.1576 130.5947 0001309  74.8567 283.6205 15.34367659    12

Acompanhe STARLINK-34727 em tempo real com AllMySat

Download on the App Store